This demonstration page uses our WeatherBlox Daily Observations layout. Learn more.

Left ArrowRight Arrow

40.92945, -100.16068

Hourly Observations for November 15, 2018

Temp ( °F °C ) Dew Point ( °F °C ) Humidity (%) Winds ( mph kmh ) Pressure ( in mb ) Visibility ( mi km ) Precip ( " mm )
12:15 am 00:15 Clear 31 -0.7 26 -3.1 84 84 E 3 6 30.15 1021 10 16.0934 0 0
12:35 am 00:35 Clear 28 -2.2 25 -4 88 88 Calm 30.18 1022 10 16.0934 0 0
12:55 am 00:55 Clear 28 -2.5 25 -4.1 89 89 Calm 30.18 1022 10 16.0934 0 0
1:15 am 01:15 Clear 26 -3.2 23 -5.1 87 87 Calm 30.18 1022 10 16.0934 0 0
1:35 am 01:35 Clear 25 -4.1 21 -5.9 87 87 Calm 30.18 1022 10 16.0934 0 0
1:55 am 01:55 Clear 24 -4.3 22 -5.6 91 91 NW 5 7 30.15 1021 10 16.0934 0 0
2:15 am 02:15 Clear 25 -4 22 -5.3 91 91 WNW 3 6 30.15 1021 10 16.0934 0 0
2:35 am 02:35 Clear 24 -4.6 21 -6 90 90 WNW 6 9 30.15 1021 10 16.0934 0 0
2:55 am 02:55 Clear 24 -4.2 22 -5.6 90 90 W 7 11 30.15 1021 10 16.0934 0 0
3:15 am 03:15 Clear 26 -3.1 24 -4.5 90 90 WNW 7 11 30.15 1021 10 16.0934 0 0
3:35 am 03:35 Clear 27 -3 24 -4.5 90 90 WNW 6 9 30.12 1020 10 16.0934 0 0
3:55 am 03:55 Clear 26 -3.2 24 -4.6 90 90 WNW 7 11 30.12 1020 10 16.0934 0 0
4:15 am 04:15 Clear 26 -3.2 23 -5 88 88 WNW 6 9 30.12 1020 10 16.0934 0 0
4:35 am 04:35 Clear 26 -3.2 23 -5 88 88 WNW 6 9 30.12 1020 10 16.0934 0 0
4:55 am 04:55 Clear 29 -1.6 25 -4 84 84 WNW 8 13 30.09 1019 10 16.0934 0 0
5:15 am 05:15 Clear 30 -1.1 25 -3.8 82 82 WNW 9 15 30.09 1019 10 16.0934 0 0
5:35 am 05:35 Clear 30 -1 25 -3.8 82 82 WNW 10 17 30.09 1019 10 16.0934 0 0
5:55 am 05:55 Clear 30 -1.3 25 -3.9 83 83 WNW 14 22 30.09 1019 10 16.0934 0 0
6:15 am 06:15 Clear 31 -0.5 26 -3.5 80 80 WNW 10 17 30.09 1019 10 16.0934 0 0
6:35 am 06:35 Clear 32 0.1 26 -3.2 79 79 WNW 12 19 30.09 1019 10 16.0934 0 0
6:55 am 06:55 Clear 32 -0.1 26 -3.3 79 79 WNW 13 20 30.09 1019 10 16.0934 0 0
7:15 am 07:15 Clear 32 0 26 -3.3 79 79 WNW 13 20 30.09 1019 10 16.0934 0 0
7:35 am 07:35 Sunny 32 -0.1 26 -3.5 78 78 WNW 9 15 30.09 1019 10 16.0934 0 0
7:55 am 07:55 Sunny 32 -0.2 26 -3.4 79 79 WNW 9 15 30.09 1019 10 16.0934 0 0
8:15 am 08:15 Sunny 32 0 26 -3.1 80 80 WNW 10 17 30.12 1020 10 16.0934 0 0
8:35 am 08:35 Sunny 34 1 27 -2.6 77 77 WNW 12 19 30.09 1019 10 16.0934 0 0
8:55 am 08:55 Sunny 36 2 28 -2.1 75 75 WNW 15 24 30.09 1019 10 16.0934 0 0
9:15 am 09:15 Sunny 38 3.4 29 -1.8 69 69 WNW 16 26 30.09 1019 10 16.0934 0 0
9:35 am 09:35 Sunny 40 4.5 29 -1.5 65 65 WNW 13 20 30.06 1018 10 16.0934 0 0
9:55 am 09:55 Sunny 44 6.4 30 -1.1 59 59 WNW 12 19 30.09 1019 10 16.0934 0 0
10:15 am 10:15 Sunny 47 8.2 30 -0.9 53 53 WNW 9 15 30.06 1018 10 16.0934 0 0
10:35 am 10:35 Sunny 51 10.6 31 -0.3 47 47 NW 10 17 30.03 1017 10 16.0934 0 0
10:55 am 10:55 Sunny 56 13.6 30 -0.9 37 37 NNW 18 30 30 1016 10 16.0934 0 0
11:15 am 11:15 Sunny 60 15.4 27 -2.8 29 29 N 20 31 30 1016 10 16.0934 0 0
11:35 am 11:35 Sunny 61 16.1 27 -2.7 28 28 N 20 31 30 1016 10 16.0934 0 0
11:55 am 11:55 Sunny 61 16.1 27 -2.7 28 28 N 23 37 30 1016 10 16.0934 0 0
12:15 pm 12:15 Sunny 61 16.1 27 -2.6 28 28 N 22 35 30 1016 10 16.0934 0 0
12:35 pm 12:35 Sunny 61 16.1 28 -2.5 28 28 N 17 28 30 1016 10 16.0934 0 0
12:55 pm 12:55 Sunny 62 16.4 27 -2.6 27 27 N 23 37 30 1016 10 16.0934 0 0
1:15 pm 13:15 Sunny 62 16.9 28 -2.1 27 27 N 20 31 29.97 1015 10 16.0934 0 0
1:35 pm 13:35 Sunny 62 16.7 28 -2.2 28 28 N 22 35 30 1016 10 16.0934 0 0
1:55 pm 13:55 Sunny 62 16.8 28 -2.2 27 27 N 20 31 29.97 1015 10 16.0934 0 0
2:15 pm 14:15 Sunny 63 17.1 28 -2.1 27 27 NNW 22 35 29.97 1015 10 16.0934 0 0
2:35 pm 14:35 Sunny 62 16.8 28 -2.4 27 27 N 20 31 29.97 1015 10 16.0934 0 0
2:55 pm 14:55 Sunny 62 16.7 27 -2.7 27 27 N 16 26 30 1016 10 16.0934 0 0
3:15 pm 15:15 Sunny 62 16.8 27 -2.8 26 26 N 16 26 29.97 1015 10 16.0934 0 0
3:35 pm 15:35 Sunny 62 16.5 26 -3.1 26 26 N 17 28 30 1016 10 16.0934 0 0
3:55 pm 15:55 Sunny 61 16 26 -3.2 27 27 NNW 15 24 30 1016 10 16.0934 0 0
4:15 pm 16:15 Sunny 60 15.3 27 -3 28 28 N 15 24 30 1016 10 16.0934 0 0
4:35 pm 16:35 Sunny 58 14.5 27 -3 30 30 NNW 13 20 30 1016 10 16.0934 0 0
4:55 pm 16:55 Sunny 56 13.3 26 -3.2 32 32 N 13 20 30.03 1017 10 16.0934 0 0
5:15 pm 17:15 Sunny 52 11.3 26 -3.5 36 36 NNW 9 15 30.03 1017 10 16.0934 0 0
5:35 pm 17:35 Clear 47 8.5 26 -3.5 43 43 N 10 17 30.06 1018 10 16.0934 0 0
5:55 pm 17:55 Clear 44 6.5 25 -4 47 47 N 8 13 30.09 1019 10 16.0934 0 0
6:15 pm 18:15 Clear 39 4.1 25 -4.1 56 56 N 8 13 30.09 1019 10 16.0934 0 0
6:35 pm 18:35 Clear 39 4 24 -4.5 54 54 NNW 6 9 30.09 1019 10 16.0934 0 0
6:55 pm 18:55 Clear 38 3.5 24 -4.6 56 56 NNW 3 6 30.12 1020 10 16.0934 0 0
7:15 pm 19:15 Clear 35 1.8 24 -4.2 65 65 W 6 9 30.12 1020 10 16.0934 0 0
7:30 pm 19:30 Clear 37 2.5 25 -4 63 63 W 7 11 30.15 1021 10 16.0934 0 0
7:55 pm 19:55 Clear 35 1.5 25 -4.1 67 67 W 9 15 30.15 1021 10 16.0934 0 0
8:15 pm 20:15 Clear 34 1.3 24 -4.3 67 67 WNW 9 15 30.15 1021 10 16.0934 0 0
8:35 pm 20:35 Clear 34 1.1 24 -4.2 68 68 W 9 15 30.18 1022 10 16.0934 0 0
8:55 pm 20:55 Clear 34 1.3 25 -4.1 68 68 WNW 8 13 30.15 1021 10 16.0934 0 0
9:15 pm 21:15 Clear 32 0.1 25 -4.1 74 74 WNW 8 13 30.18 1022 10 16.0934 0 0
9:35 pm 21:35 Clear 32 -0.1 24 -4.3 74 74 W 6 9 30.21 1023 10 16.0934 0 0
9:55 pm 21:55 Clear 32 -0.1 24 -4.3 74 74 WNW 9 15 30.21 1023 10 16.0934 0 0
10:15 pm 22:15 Clear 31 -0.5 24 -4.5 75 75 W 7 11 30.21 1023 10 16.0934 0 0
10:35 pm 22:35 Clear 32 0 24 -4.5 72 72 W 8 13 30.21 1023 10 16.0934 0 0
10:55 pm 22:55 Clear 31 -0.7 23 -4.9 74 74 W 8 13 30.21 1023 10 16.0934 0 0
11:15 pm 23:15 Clear 30 -0.9 24 -4.7 76 76 W 9 15 30.21 1023 10 16.0934 0 0
11:35 pm 23:35 Clear 31 -0.8 24 -4.5 76 76 W 8 13 30.21 1023 10 16.0934 0 0
11:55 pm 23:55 Clear 31 -0.4 24 -4.6 74 74 W 8 13 30.21 1023 10 16.0934 0 0

Powered by AerisWeather